| time (UTC) | temp C | wind direction | speed KPH | gust KPH | rain 1hr cm | rain 24hr cm | rain mn cm | humidity % | barometer mb |
| 20260507072000 | 13 | 20 | 3.2 | 6.4 | 0.00 | 0.00 | 0.00 | 99 | 1005.0 |
| 20260507071457 | 13 | 10 | 3.2 | 6.4 | 0.00 | 0.00 | 0.00 | 99 | 1005.0 |
| 20260507070954 | 13 | 317 | 3.2 | 9.7 | 0.00 | 0.00 | 0.00 | 99 | 1005.4 |
| 20260507070451 | 13 | 286 | 6.4 | 9.7 | 0.00 | 0.00 | 0.00 | 99 | 1005.3 |
| 20260507065948 | 13 | 202 | 0.0 | 4.8 | 0.00 | 0.00 | 0.00 | 99 | 1005.2 |
| 20260507065444 | 13 | 74 | 0.0 | 3.2 | 0.00 | 0.00 | 0.00 | 99 | 1005.0 |
| 20260507064942 | 13 | 181 | 0.0 | 3.2 | 0.00 | 0.00 | 0.00 | 99 | 1005.1 |
| 20260507064440 | 13 | 352 | 6.4 | 6.4 | 0.00 | 0.00 | 0.00 | 99 | 1005.0 |
| 20260507063937 | 13 | 40 | 3.2 | 8.0 | 0.00 | 0.00 | 0.00 | 99 | 1005.1 |
| 20260507063434 | 13 | 262 | 3.2 | 3.2 | 0.00 | 0.00 | 0.00 | 99 | 1005.3 |
| 20260507062931 | 13 | 174 | 3.2 | 3.2 | 0.00 | 0.00 | 0.00 | 99 | 1005.2 |
| 20260507062429 | 13 | 91 | 0.0 | 3.2 | 0.00 | 0.00 | 0.00 | 99 | 1005.2 |
| 20260507061925 | 13 | 49 | 3.2 | 4.8 | 0.00 | 0.00 | 0.00 | 99 | 1005.3 |
| 20260507061424 | 13 | 257 | 0.0 | 6.4 | 0.00 | 0.00 | 0.00 | 99 | 1005.4 |
| 20260507060922 | 13 | 4 | 3.2 | 3.2 | 0.00 | 0.00 | 0.00 | 99 | 1005.4 |
| 20260507060418 | 13 | 194 | 4.8 | 8.0 | 0.00 | 0.00 | 0.00 | 99 | 1005.5 |
| 20260507055915 | 13 | 228 | 8.0 | 8.0 | 0.00 | 0.00 | 0.00 | 99 | 1005.8 |
| 20260507055410 | 13 | 187 | 3.2 | 8.0 | 0.00 | 0.00 | 0.00 | 99 | 1005.4 |
| 20260507054907 | 13 | 103 | 3.2 | 9.7 | 0.00 | 0.00 | 0.00 | 99 | 1005.3 |
| 20260507054403 | 13 | 289 | 0.0 | 8.0 | 0.00 | 0.00 | 0.00 | 99 | 1005.5 |
| 20260507053901 | 13 | 62 | 3.2 | 6.4 | 0.00 | 0.00 | 0.00 | 99 | 1005.9 |
| 20260507053358 | 13 | 176 | 4.8 | 6.4 | 0.00 | 0.00 | 0.00 | 99 | 1005.7 |
| 20260507052857 | 13 | 191 | 0.0 | 4.8 | 0.00 | 0.00 | 0.00 | 99 | 1005.6 |
| 20260507052354 | 13 | 102 | 0.0 | 4.8 | 0.00 | 0.00 | 0.00 | 99 | 1005.6 |
| 20260507051851 | 13 | 155 | 3.2 | 8.0 | 0.00 | 0.00 | 0.00 | 99 | 1005.5 |
| 20260507051349 | 13 | 77 | 0.0 | 8.0 | 0.00 | 0.00 | 0.00 | 99 | 1005.6 |
| 20260507050845 | 13 | 162 | 3.2 | 6.4 | 0.00 | 0.00 | 0.00 | 99 | 1005.6 |
| 20260507050342 | 13 | 314 | 3.2 | 9.7 | 0.00 | 0.00 | 0.00 | 99 | 1005.8 |
| 20260507045838 | 13 | 197 | 0.0 | 6.4 | 0.00 | 0.00 | 0.00 | 99 | 1005.9 |
| 20260507045335 | 13 | 232 | 0.0 | 6.4 | 0.00 | 0.00 | 0.00 | 99 | 1006.0 |
| 20260507044832 | 13 | 152 | 4.8 | 12.9 | 0.00 | 0.00 | 0.00 | 99 | 1005.9 |
| 20260507044329 | 13 | 238 | 3.2 | 9.7 | 0.00 | 0.00 | 0.00 | 99 | 1005.8 |
| 20260507043825 | 13 | 107 | 4.8 | 9.7 | 0.00 | 0.00 | 0.00 | 99 | 1005.7 |
| 20260507043321 | 13 | 6 | 0.0 | 12.9 | 0.00 | 0.00 | 0.00 | 99 | 1005.7 |
| 20260507042818 | 13 | 213 | 3.2 | 12.9 | 0.00 | 0.00 | 0.00 | 99 | 1005.7 |
| 20260507042314 | 13 | 197 | 0.0 | 9.7 | 0.00 | 0.00 | 0.00 | 99 | 1005.8 |
| 20260507041811 | 13 | 254 | 6.4 | 8.0 | 0.00 | 0.00 | 0.00 | 99 | 1005.9 |
| 20260507041307 | 13 | 162 | 3.2 | 11.3 | 0.00 | 0.00 | 0.00 | 99 | 1005.8 |
| 20260507040805 | 13 | 217 | 3.2 | 9.7 | 0.00 | 0.00 | 0.00 | 99 | 1005.9 |
| 20260507040300 | 13 | 170 | 6.4 | 14.5 | 0.00 | 0.00 | 0.00 | 99 | 1006.1 |
| 20260507035756 | 13 | 277 | 0.0 | 8.0 | 0.00 | 0.18 | 0.18 | 99 | 1006.0 |
| 20260507035252 | 13 | 123 | 0.0 | 11.3 | 0.00 | 0.18 | 0.18 | 99 | 1006.0 |
| 20260507034750 | 13 | 106 | 8.0 | 11.3 | 0.00 | 0.18 | 0.18 | 99 | 1006.2 |
| 20260507034246 | 13 | 273 | 8.0 | 17.7 | 0.00 | 0.18 | 0.18 | 99 | 1006.4 |
| 20260507033745 | 13 | 177 | 6.4 | 12.9 | 0.00 | 0.18 | 0.18 | 99 | 1006.2 |
| 20260507033242 | 13 | 245 | 11.3 | 12.9 | 0.00 | 0.18 | 0.18 | 99 | 1006.0 |
| 20260507032739 | 13 | 223 | 9.7 | 14.5 | 0.00 | 0.18 | 0.18 | 99 | 1006.0 |
| 20260507032235 | 13 | 239 | 11.3 | 12.9 | 0.00 | 0.18 | 0.18 | 99 | 1006.0 |
| 20260507031732 | 13 | 171 | 9.7 | 14.5 | 0.00 | 0.18 | 0.18 | 99 | 1005.9 |
| 20260507031229 | 13 | 200 | 9.7 | 35.4 | 0.00 | 0.18 | 0.18 | 99 | 1005.7 |
| 20260507030725 | 13 | 273 | 6.4 | 14.5 | 0.00 | 0.18 | 0.18 | 99 | 1005.7 |
| 20260507030223 | 13 | 321 | 3.2 | 22.5 | 0.00 | 0.18 | 0.18 | 99 | 1005.7 |
| 20260507025720 | 13 | 183 | 6.4 | 14.5 | 0.00 | 0.18 | 0.18 | 99 | 1005.7 |
| 20260507025217 | 13 | 214 | 6.4 | 9.7 | 0.00 | 0.18 | 0.18 | 99 | 1005.5 |
| 20260507024715 | 13 | 128 | 3.2 | 12.9 | 0.00 | 0.18 | 0.18 | 99 | 1005.5 |
| 20260507024212 | 13 | 286 | 3.2 | 11.3 | 0.00 | 0.18 | 0.18 | 99 | 1005.5 |
| 20260507023707 | 13 | 185 | 6.4 | 19.3 | 0.00 | 0.18 | 0.18 | 99 | 1005.6 |
| 20260507023205 | 13 | 125 | 11.3 | 22.5 | 0.00 | 0.18 | 0.18 | 99 | 1005.6 |
| 20260507022702 | 13 | 218 | 12.9 | 12.9 | 0.00 | 0.18 | 0.18 | 99 | 1005.6 |
| 20260507022157 | 13 | 191 | 16.1 | 20.9 | 0.00 | 0.18 | 0.18 | 99 | 1005.5 |
| 20260507021654 | 13 | 47 | 0.0 | 17.7 | 0.00 | 0.18 | 0.18 | 99 | 1005.4 |
| 20260507021149 | 13 | 234 | 8.0 | 19.3 | 0.00 | 0.18 | 0.18 | 99 | 1005.8 |
| 20260507020648 | 13 | 222 | 11.3 | 11.3 | 0.00 | 0.18 | 0.18 | 99 | 1005.9 |
| 20260507020144 | 13 | 134 | 3.2 | 14.5 | 0.00 | 0.18 | 0.18 | 99 | 1005.9 |
| 20260507015642 | 13 | 127 | 6.4 | 12.9 | 0.00 | 0.18 | 0.18 | 99 | 1006.1 |
| 20260507015139 | 13 | 196 | 4.8 | 11.3 | 0.00 | 0.18 | 0.18 | 99 | 1006.1 |
| 20260507014636 | 13 | 138 | 14.5 | 25.7 | 0.00 | 0.18 | 0.18 | 99 | 1006.1 |
| 20260507014132 | 13 | 153 | 8.0 | 24.1 | 0.00 | 0.18 | 0.18 | 99 | 1006.2 |
| 20260507013629 | 13 | 121 | 8.0 | 24.1 | 0.00 | 0.18 | 0.18 | 99 | 1006.2 |
| 20260507013126 | 13 | 168 | 9.7 | 20.9 | 0.00 | 0.18 | 0.18 | 99 | 1006.1 |
| 20260507012623 | 13 | 280 | 0.0 | 20.9 | 0.00 | 0.18 | 0.18 | 99 | 1006.2 |
| 20260507012118 | 13 | 147 | 9.7 | 24.1 | 0.00 | 0.18 | 0.18 | 99 | 1006.2 |
| 20260507011617 | 13 | 164 | 8.0 | 19.3 | 0.00 | 0.18 | 0.18 | 99 | 1006.3 |
| 20260507011113 | 13 | 125 | 6.4 | 24.1 | 0.00 | 0.18 | 0.18 | 99 | 1006.3 |
| 20260507010608 | 13 | 275 | 6.4 | 19.3 | 0.00 | 0.18 | 0.18 | 99 | 1006.3 |
| 20260507010104 | 13 | 168 | 3.2 | 17.7 | 0.00 | 0.18 | 0.18 | 99 | 1006.2 |
| 20260507005601 | 13 | 230 | 12.9 | 14.5 | 0.00 | 0.18 | 0.18 | 99 | 1006.4 |
| 20260507005057 | 13 | 114 | 19.3 | 24.1 | 0.00 | 0.18 | 0.18 | 99 | 1006.4 |
| 20260507004554 | 13 | 154 | 11.3 | 16.1 | 0.00 | 0.18 | 0.18 | 99 | 1006.2 |
| 20260507004052 | 13 | 124 | 11.3 | 14.5 | 0.00 | 0.18 | 0.18 | 99 | 1006.4 |
| 20260507003548 | 13 | 106 | 14.5 | 16.1 | 0.00 | 0.18 | 0.18 | 99 | 1006.4 |
| 20260507003043 | 13 | 151 | 11.3 | 11.3 | 0.00 | 0.18 | 0.18 | 99 | 1006.3 |
| 20260507002540 | 13 | 141 | 8.0 | 12.9 | 0.05 | 0.18 | 0.18 | 99 | 1006.4 |
| 20260507002036 | 13 | 199 | 22.5 | 22.5 | 0.13 | 0.18 | 0.18 | 99 | 1006.2 |
| 20260507001532 | 13 | 249 | 8.0 | 17.7 | 0.13 | 0.15 | 0.15 | 99 | 1006.2 |
| 20260507001030 | 13 | 157 | 9.7 | 17.7 | 0.18 | 0.15 | 0.15 | 99 | 1006.3 |
| 20260507000526 | 13 | 211 | 11.3 | 14.5 | 0.13 | 0.15 | 0.15 | 99 | 1006.1 |
| 20260507000022 | 13 | 231 | 14.5 | 24.1 | 0.00 | 0.13 | 0.13 | 99 | 1006.3 |
| 20260506235519 | 13 | 229 | 6.4 | 32.2 | 0.00 | 0.13 | 0.13 | 99 | 1006.2 |
| 20260506235015 | 13 | 202 | 12.9 | 14.5 | 0.00 | 0.13 | 0.13 | 99 | 1006.1 |
| 20260506234513 | 13 | 121 | 9.7 | 14.5 | 0.00 | 0.13 | 0.13 | 99 | 1006.3 |
| 20260506234010 | 13 | 135 | 6.4 | 12.9 | 0.00 | 0.13 | 0.13 | 99 | 1006.2 |
| 20260506233506 | 13 | 150 | 19.3 | 30.6 | 0.00 | 0.13 | 0.13 | 99 | 1006.3 |
| 20260506233003 | 13 | 128 | 11.3 | 14.5 | 0.00 | 0.13 | 0.13 | 99 | 1006.3 |
| 20260506232459 | 13 | 165 | 9.7 | 25.7 | 0.05 | 0.13 | 0.13 | 99 | 1006.4 |
| 20260506231955 | 13 | 81 | 14.5 | 29.0 | 0.05 | 0.13 | 0.13 | 99 | 1006.3 |
| 20260506231452 | 13 | 163 | 14.5 | 30.6 | 0.00 | 0.13 | 0.13 | 99 | 1006.4 |
| 20260506230950 | 13 | 140 | 6.4 | 19.3 | 0.00 | 0.13 | 0.13 | 99 | 1006.4 |
| 20260506230446 | 13 | 139 | 8.0 | 24.1 | 0.00 | 0.13 | 0.13 | 99 | 1006.3 |
| 20260506225942 | 13 | 197 | 3.2 | 8.0 | 0.05 | 0.13 | 0.13 | 99 | 1006.3 |
| 20260506225440 | 13 | 233 | 6.4 | 17.7 | 0.05 | 0.13 | 0.13 | 99 | 1006.3 |
| 20260506224937 | 13 | 114 | 6.4 | 22.5 | 0.05 | 0.10 | 0.10 | 99 | 1006.4 |
| 20260506224434 | 13 | 233 | 8.0 | 14.5 | 0.13 | 0.10 | 0.10 | 99 | 1006.2 |
| 20260506223930 | 13 | 94 | 12.9 | 17.7 | 0.13 | 0.10 | 0.10 | 99 | 1006.5 |
| 20260506223426 | 14 | 146 | 12.9 | 22.5 | 0.05 | 0.08 | 0.08 | 98 | 1006.9 |
| 20260506222923 | 14 | 177 | 3.2 | 19.3 | 0.05 | 0.08 | 0.08 | 98 | 1006.5 |
| 20260506222420 | 14 | 184 | 24.1 | 27.4 | 0.13 | 0.08 | 0.08 | 97 | 1006.8 |
| 20260506221917 | 14 | 213 | 16.1 | 24.1 | 0.05 | 0.05 | 0.05 | 97 | 1006.6 |
| 20260506221414 | 14 | 111 | 9.7 | 14.5 | 0.00 | 0.05 | 0.05 | 96 | 1006.8 |
| 20260506220912 | 15 | 164 | 14.5 | 29.0 | 0.00 | 0.05 | 0.05 | 96 | 1006.8 |
| 20260506220407 | 15 | 132 | 6.4 | 24.1 | 0.00 | 0.05 | 0.05 | 95 | 1006.8 |
| 20260506215904 | 15 | 171 | 24.1 | 27.4 | 0.00 | 0.05 | 0.05 | 96 | 1006.7 |
| 20260506215400 | 15 | 137 | 12.9 | 32.2 | 0.00 | 0.05 | 0.05 | 96 | 1007.0 |
| 20260506214856 | 15 | 171 | 6.4 | 24.1 | 0.00 | 0.05 | 0.05 | 96 | 1006.9 |
| 20260506214352 | 15 | 257 | 11.3 | 25.7 | 0.00 | 0.05 | 0.05 | 95 | 1006.7 |
| 20260506213851 | 15 | 202 | 22.5 | 27.4 | 0.00 | 0.05 | 0.05 | 95 | 1006.8 |
| 20260506213348 | 15 | 127 | 17.7 | 33.8 | 0.00 | 0.05 | 0.05 | 94 | 1007.1 |
| 20260506212845 | 15 | 161 | 9.7 | 27.4 | 0.00 | 0.05 | 0.05 | 94 | 1006.9 |
| 20260506212340 | 15 | 146 | 17.7 | 25.7 | 0.00 | 0.05 | 0.05 | 93 | 1006.8 |
| 20260506211836 | 15 | 176 | 11.3 | 25.7 | 0.00 | 0.05 | 0.05 | 93 | 1007.1 |
| 20260506211332 | 15 | 150 | 8.0 | 24.1 | 0.00 | 0.05 | 0.05 | 93 | 1007.1 |
| 20260506210829 | 15 | 150 | 11.3 | 24.1 | 0.00 | 0.05 | 0.05 | 93 | 1006.9 |
| 20260506210326 | 15 | 160 | 17.7 | 29.0 | 0.00 | 0.05 | 0.05 | 93 | 1007.0 |
| 20260506205823 | 15 | 168 | 4.8 | 24.1 | 0.00 | 0.05 | 0.05 | 94 | 1007.2 |
| 20260506205319 | 15 | 155 | 6.4 | 22.5 | 0.00 | 0.05 | 0.05 | 93 | 1007.3 |
| 20260506204816 | 15 | 281 | 8.0 | 19.3 | 0.00 | 0.05 | 0.05 | 93 | 1007.1 |
| 20260506204314 | 15 | 195 | 8.0 | 30.6 | 0.00 | 0.05 | 0.05 | 94 | 1007.2 |
| 20260506203811 | 15 | 190 | 14.5 | 27.4 | 0.00 | 0.05 | 0.05 | 95 | 1007.1 |
| 20260506203309 | 15 | 147 | 11.3 | 14.5 | 0.05 | 0.05 | 0.05 | 95 | 1007.4 |
| 20260506202805 | 15 | 211 | 9.7 | 38.6 | 0.00 | 0.05 | 0.05 | 95 | 1007.1 |
| 20260506202305 | 15 | 164 | 9.7 | 17.7 | 0.05 | 0.05 | 0.05 | 94 | 1007.3 |
| 20260506201758 | 15 | 128 | 11.3 | 24.1 | 0.05 | 0.05 | 0.05 | 94 | 1007.4 |
| 20260506201255 | 15 | 181 | 4.8 | 19.3 | 0.05 | 0.03 | 0.03 | 92 | 1007.2 |
| 20260506200753 | 15 | 145 | 14.5 | 24.1 | 0.13 | 0.03 | 0.03 | 91 | 1007.4 |
| 20260506200249 | 15 | 164 | 9.7 | 22.5 | 0.13 | 0.03 | 0.03 | 90 | 1007.5 |
| 20260506195745 | 16 | 194 | 9.7 | 41.8 | 0.05 | 0.00 | 0.00 | 88 | 1007.6 |
| 20260506195242 | 16 | 210 | 6.4 | 32.2 | 0.00 | 0.00 | 0.00 | 86 | 1007.7 |
| 20260506194739 | 16 | 125 | 25.7 | 35.4 | 0.00 | 0.00 | 0.00 | 85 | 1007.7 |
| 20260506194235 | 16 | 108 | 11.3 | 30.6 | 0.00 | 0.00 | 0.00 | 84 | 1007.7 |
| 20260506193734 | 17 | 198 | 14.5 | 43.5 | 0.00 | 0.00 | 0.00 | 81 | 1007.6 |
| 20260506193230 | 17 | 150 | 9.7 | 14.5 | 0.00 | 0.00 | 0.00 | 81 | 1007.6 |
| 20260506192726 | 17 | 147 | 12.9 | 33.8 | 0.00 | 0.00 | 0.00 | 80 | 1007.6 |
| 20260506192223 | 17 | 132 | 14.5 | 29.0 | 0.00 | 0.00 | 0.00 | 80 | 1007.7 |
| 20260506191720 | 17 | 212 | 14.5 | 20.9 | 0.00 | 0.00 | 0.00 | 80 | 1007.7 |
| 20260506191216 | 17 | 160 | 6.4 | 45.1 | 0.00 | 0.00 | 0.00 | 80 | 1007.8 |
| 20260506190714 | 17 | 100 | 8.0 | 25.7 | 0.00 | 0.00 | 0.00 | 80 | 1007.6 |
| 20260506190210 | 17 | 201 | 20.9 | 46.7 | 0.00 | 0.00 | 0.00 | 80 | 1007.7 |
| 20260506185707 | 17 | 124 | 6.4 | 43.5 | 0.00 | 0.00 | 0.00 | 79 | 1007.4 |
| 20260506185203 | 17 | 178 | 8.0 | 33.8 | 0.00 | 0.00 | 0.00 | 79 | 1008.1 |
| 20260506184701 | 17 | 189 | 9.7 | 41.8 | 0.00 | 0.00 | 0.00 | 78 | 1007.6 |
| 20260506184158 | 18 | 151 | 8.0 | 41.8 | 0.00 | 0.00 | 0.00 | 77 | 1007.9 |
| 20260506183655 | 18 | 175 | 8.0 | 30.6 | 0.00 | 0.00 | 0.00 | 77 | 1007.8 |
| 20260506183151 | 18 | 87 | 6.4 | 41.8 | 0.00 | 0.00 | 0.00 | 76 | 1007.8 |
| 20260506182649 | 18 | 217 | 17.7 | 30.6 | 0.00 | 0.00 | 0.00 | 76 | 1008.0 |
| 20260506182145 | 18 | 150 | 19.3 | 22.5 | 0.00 | 0.00 | 0.00 | 76 | 1007.9 |
| 20260506181643 | 18 | 140 | 4.8 | 27.4 | 0.00 | 0.00 | 0.00 | 76 | 1008.0 |
| 20260506181140 | 18 | 131 | 9.7 | 30.6 | 0.00 | 0.00 | 0.00 | 76 | 1008.1 |
| 20260506180637 | 18 | 127 | 29.0 | 43.5 | 0.00 | 0.00 | 0.00 | 75 | 1008.4 |
| 20260506180133 | 18 | 140 | 16.1 | 40.2 | 0.00 | 0.00 | 0.00 | 74 | 1008.3 |
| 20260506175630 | 18 | 147 | 19.3 | 27.4 | 0.00 | 0.00 | 0.00 | 74 | 1008.6 |
| 20260506175126 | 19 | 318 | 27.4 | 40.2 | 0.00 | 0.00 | 0.00 | 73 | 1008.5 |
| 20260506174625 | 19 | 199 | 9.7 | 35.4 | 0.00 | 0.00 | 0.00 | 74 | 1008.8 |
| 20260506174121 | 18 | 189 | 37.0 | 49.9 | 0.00 | 0.00 | 0.00 | 74 | 1008.6 |
| 20260506173619 | 19 | 192 | 20.9 | 45.1 | 0.00 | 0.00 | 0.00 | 73 | 1008.5 |
| 20260506173115 | 19 | 70 | 24.1 | 37.0 | 0.00 | 0.00 | 0.00 | 74 | 1008.7 |
| 20260506172613 | 20 | 147 | 14.5 | 45.1 | 0.00 | 0.00 | 0.00 | 71 | 1008.6 |
| 20260506172109 | 20 | 164 | 17.7 | 37.0 | 0.00 | 0.00 | 0.00 | 71 | 1008.3 |
| 20260506171607 | 19 | 203 | 9.7 | 35.4 | 0.00 | 0.00 | 0.00 | 73 | 1008.4 |
| 20260506171104 | 19 | 242 | 8.0 | 17.7 | 0.00 | 0.00 | 0.00 | 74 | 1008.5 |
| 20260506170601 | 19 | 198 | 17.7 | 40.2 | 0.00 | 0.00 | 0.00 | 73 | 1008.4 |
| 20260506170059 | 19 | 221 | 43.5 | 45.1 | 0.00 | 0.00 | 0.00 | 72 | 1008.9 |
| 20260506165557 | 19 | 212 | 20.9 | 40.2 | 0.00 | 0.00 | 0.00 | 72 | 1008.7 |
| 20260506165053 | 19 | 188 | 12.9 | 40.2 | 0.00 | 0.00 | 0.00 | 72 | 1008.8 |
| 20260506164550 | 19 | 172 | 30.6 | 40.2 | 0.00 | 0.00 | 0.00 | 72 | 1009.0 |
| 20260506164047 | 20 | 119 | 22.5 | 40.2 | 0.00 | 0.00 | 0.00 | 71 | 1009.0 |
| 20260506163543 | 19 | 218 | 14.5 | 29.0 | 0.00 | 0.00 | 0.00 | 71 | 1009.2 |
| 20260506163039 | 19 | 235 | 20.9 | 29.0 | 0.00 | 0.00 | 0.00 | 72 | 1009.1 |
| 20260506162536 | 19 | 202 | 19.3 | 33.8 | 0.00 | 0.00 | 0.00 | 71 | 1009.1 |
| 20260506162033 | 20 | 192 | 16.1 | 25.7 | 0.00 | 0.00 | 0.00 | 71 | 1009.2 |
| 20260506161531 | 20 | 133 | 14.5 | 38.6 | 0.00 | 0.00 | 0.00 | 71 | 1009.3 |
| 20260506161027 | 20 | 216 | 11.3 | 40.2 | 0.00 | 0.00 | 0.00 | 70 | 1009.1 |
| 20260506160525 | 20 | 198 | 11.3 | 25.7 | 0.00 | 0.00 | 0.00 | 72 | 1009.5 |
| 20260506160022 | 20 | 236 | 22.5 | 46.7 | 0.00 | 0.00 | 0.00 | 72 | 1009.3 |
| 20260506155520 | 20 | 186 | 9.7 | 17.7 | 0.00 | 0.00 | 0.00 | 72 | 1009.5 |
| 20260506153651 | 20 | 149 | 12.9 | 17.7 | 0.00 | 0.00 | 0.00 | 72 | 1009.8 |
| 20260506153149 | 19 | 213 | 30.6 | 51.5 | 0.00 | 0.00 | 0.00 | 72 | 1010.1 |
| 20260506152645 | 19 | 116 | 11.3 | 30.6 | 0.00 | 0.00 | 0.00 | 72 | 1010.1 |
| 20260506152143 | 19 | 155 | 20.9 | 25.7 | 0.00 | 0.00 | 0.00 | 73 | 1010.0 |
| 20260506151642 | 19 | 157 | 14.5 | 29.0 | 0.00 | 0.00 | 0.00 | 72 | 1009.9 |
| 20260506151138 | 20 | 158 | 14.5 | 30.6 | 0.00 | 0.00 | 0.00 | 69 | 1010.0 |
| 20260506150635 | 20 | 211 | 12.9 | 25.7 | 0.00 | 0.00 | 0.00 | 69 | 1009.9 |
| 20260506150132 | 20 | 164 | 11.3 | 30.6 | 0.00 | 0.00 | 0.00 | 69 | 1009.9 |
| 20260506145629 | 20 | 131 | 9.7 | 27.4 | 0.00 | 0.00 | 0.00 | 70 | 1010.0 |
| 20260506145125 | 20 | 311 | 0.0 | 27.4 | 0.00 | 0.00 | 0.00 | 70 | 1009.8 |
| 20260506144623 | 20 | 135 | 14.5 | 17.7 | 0.00 | 0.00 | 0.00 | 71 | 1009.6 |
| 20260506144119 | 20 | 206 | 9.7 | 27.4 | 0.00 | 0.00 | 0.00 | 70 | 1009.7 |
| 20260506143617 | 20 | 248 | 9.7 | 25.7 | 0.00 | 0.00 | 0.00 | 69 | 1009.8 |
| 20260506143115 | 20 | 133 | 17.7 | 30.6 | 0.00 | 0.00 | 0.00 | 70 | 1009.7 |
| 20260506142613 | 20 | 166 | 20.9 | 27.4 | 0.00 | 0.00 | 0.00 | 72 | 1009.5 |
| 20260506142111 | 19 | 234 | 19.3 | 40.2 | 0.00 | 0.00 | 0.00 | 71 | 1009.8 |
| 20260506141608 | 19 | 165 | 8.0 | 38.6 | 0.00 | 0.00 | 0.00 | 71 | 1009.9 |
| 20260506141107 | 19 | 141 | 12.9 | 27.4 | 0.00 | 0.00 | 0.00 | 73 | 1009.5 |
| 20260506140603 | 19 | 116 | 14.5 | 33.8 | 0.00 | 0.00 | 0.00 | 73 | 1009.5 |
| 20260506140101 | 19 | 166 | 24.1 | 38.6 | 0.00 | 0.00 | 0.00 | 73 | 1009.8 |
| 20260506135558 | 20 | 157 | 17.7 | 41.8 | 0.00 | 0.00 | 0.00 | 72 | 1010.2 |
| 20260506135054 | 19 | 147 | 8.0 | 14.5 | 0.00 | 0.00 | 0.00 | 74 | 1010.1 |
| 20260506134551 | 18 | 264 | 11.3 | 38.6 | 0.00 | 0.00 | 0.00 | 75 | 1010.4 |
| 20260506134046 | 18 | 131 | 19.3 | 33.8 | 0.00 | 0.00 | 0.00 | 75 | 1010.3 |
| 20260506133544 | 18 | 215 | 11.3 | 20.9 | 0.00 | 0.00 | 0.00 | 75 | 1010.3 |
| 20260506133041 | 18 | 131 | 14.5 | 41.8 | 0.00 | 0.00 | 0.00 | 76 | 1010.4 |
| 20260506132538 | 18 | 126 | 11.3 | 32.2 | 0.00 | 0.00 | 0.00 | 78 | 1010.2 |
| 20260506132035 | 17 | 173 | 8.0 | 32.2 | 0.00 | 0.00 | 0.00 | 78 | 1010.6 |
| 20260506131532 | 17 | 185 | 3.2 | 33.8 | 0.00 | 0.00 | 0.00 | 80 | 1010.3 |
| 20260506131028 | 17 | 291 | 8.0 | 27.4 | 0.00 | 0.00 | 0.00 | 80 | 1010.5 |
| 20260506130525 | 17 | 102 | 6.4 | 24.1 | 0.00 | 0.00 | 0.00 | 81 | 1010.5 |
| 20260506130023 | 17 | 186 | 6.4 | 17.7 | 0.00 | 0.00 | 0.00 | 82 | 1010.1 |
| 20260506125521 | 17 | 156 | 17.7 | 37.0 | 0.00 | 0.00 | 0.00 | 82 | 1010.6 |
| 20260506125019 | 17 | 103 | 14.5 | 19.3 | 0.00 | 0.00 | 0.00 | 83 | 1010.2 |
| 20260506124516 | 16 | 149 | 8.0 | 22.5 | 0.00 | 0.00 | 0.00 | 84 | 1010.4 |
| 20260506124014 | 16 | 164 | 11.3 | 25.7 | 0.00 | 0.00 | 0.00 | 85 | 1010.2 |
| 20260506123512 | 16 | 164 | 9.7 | 22.5 | 0.00 | 0.00 | 0.00 | 85 | 1010.3 |
| 20260506123009 | 16 | 156 | 6.4 | 32.2 | 0.00 | 0.00 | 0.00 | 85 | 1010.1 |
| 20260506122506 | 16 | 166 | 9.7 | 24.1 | 0.00 | 0.00 | 0.00 | 86 | 1010.5 |
| 20260506122004 | 16 | 184 | 6.4 | 20.9 | 0.00 | 0.00 | 0.00 | 87 | 1010.6 |
| 20260506121501 | 15 | 219 | 9.7 | 22.5 | 0.00 | 0.00 | 0.00 | 87 | 1010.8 |
| 20260506120957 | 15 | 142 | 11.3 | 30.6 | 0.00 | 0.00 | 0.00 | 87 | 1010.8 |
| 20260506120455 | 15 | 195 | 16.1 | 33.8 | 0.00 | 0.00 | 0.00 | 87 | 1010.7 |
| 20260506115952 | 15 | 156 | 14.5 | 33.8 | 0.00 | 0.00 | 0.00 | 87 | 1010.5 |
| 20260506115450 | 15 | 198 | 17.7 | 33.8 | 0.00 | 0.00 | 0.00 | 87 | 1010.9 |
| 20260506114948 | 15 | 240 | 20.9 | 30.6 | 0.00 | 0.00 | 0.00 | 88 | 1010.8 |
| 20260506114445 | 15 | 172 | 9.7 | 24.1 | 0.00 | 0.00 | 0.00 | 89 | 1010.9 |
| 20260506113944 | 15 | 171 | 9.7 | 22.5 | 0.00 | 0.00 | 0.00 | 90 | 1010.9 |
| 20260506113442 | 15 | 206 | 22.5 | 33.8 | 0.00 | 0.00 | 0.00 | 90 | 1010.8 |
| 20260506112938 | 15 | 188 | 16.1 | 25.7 | 0.00 | 0.00 | 0.00 | 90 | 1010.8 |
| 20260506112436 | 15 | 155 | 12.9 | 12.9 | 0.00 | 0.00 | 0.00 | 91 | 1011.0 |
| 20260506111932 | 15 | 161 | 3.2 | 19.3 | 0.00 | 0.00 | 0.00 | 91 | 1010.8 |
| 20260506111431 | 15 | 200 | 0.0 | 29.0 | 0.00 | 0.00 | 0.00 | 91 | 1010.9 |
| 20260506110927 | 15 | 145 | 14.5 | 22.5 | 0.00 | 0.00 | 0.00 | 91 | 1010.8 |
| 20260506110425 | 15 | 128 | 3.2 | 24.1 | 0.00 | 0.00 | 0.00 | 91 | 1010.8 |
| 20260506105921 | 15 | 225 | 14.5 | 22.5 | 0.00 | 0.00 | 0.00 | 91 | 1010.9 |
| 20260506105418 | 15 | 169 | 3.2 | 20.9 | 0.00 | 0.00 | 0.00 | 91 | 1011.0 |
| 20260506104915 | 15 | 163 | 12.9 | 19.3 | 0.00 | 0.00 | 0.00 | 91 | 1010.9 |
| 20260506104413 | 15 | 131 | 16.1 | 35.4 | 0.00 | 0.00 | 0.00 | 91 | 1011.0 |
| 20260506103911 | 14 | 201 | 17.7 | 27.4 | 0.00 | 0.00 | 0.00 | 92 | 1010.9 |
| 20260506103408 | 14 | 174 | 12.9 | 24.1 | 0.00 | 0.00 | 0.00 | 92 | 1011.0 |
| 20260506102905 | 14 | 128 | 17.7 | 25.7 | 0.00 | 0.00 | 0.00 | 92 | 1010.8 |
| 20260506102403 | 14 | 120 | 14.5 | 30.6 | 0.00 | 0.00 | 0.00 | 92 | 1010.9 |
| 20260506101900 | 14 | 135 | 8.0 | 19.3 | 0.00 | 0.00 | 0.00 | 92 | 1010.7 |
| 20260506101356 | 14 | 193 | 9.7 | 22.5 | 0.00 | 0.00 | 0.00 | 92 | 1010.6 |
| 20260506100854 | 14 | 125 | 14.5 | 14.5 | 0.00 | 0.00 | 0.00 | 92 | 1010.6 |
| 20260506100352 | 14 | 124 | 6.4 | 27.4 | 0.00 | 0.00 | 0.00 | 92 | 1010.7 |
| 20260506095850 | 14 | 169 | 9.7 | 14.5 | 0.00 | 0.00 | 0.00 | 92 | 1010.6 |
| 20260506095347 | 14 | 295 | 11.3 | 20.9 | 0.00 | 0.00 | 0.00 | 92 | 1010.6 |
| 20260506094844 | 14 | 229 | 14.5 | 37.0 | 0.00 | 0.00 | 0.00 | 92 | 1010.6 |
| 20260506094343 | 14 | 219 | 17.7 | 24.1 | 0.00 | 0.00 | 0.00 | 92 | 1010.8 |
| 20260506093840 | 14 | 173 | 14.5 | 17.7 | 0.00 | 0.00 | 0.00 | 91 | 1010.7 |
| 20260506093337 | 14 | 135 | 9.7 | 22.5 | 0.00 | 0.00 | 0.00 | 92 | 1010.6 |
| 20260506092835 | 14 | 168 | 6.4 | 20.9 | 0.00 | 0.00 | 0.00 | 91 | 1010.6 |
| 20260506092333 | 14 | 138 | 9.7 | 16.1 | 0.00 | 0.00 | 0.00 | 91 | 1010.6 |
| 20260506091829 | 14 | 117 | 9.7 | 22.5 | 0.00 | 0.00 | 0.00 | 91 | 1010.6 |
| 20260506091327 | 14 | 129 | 11.3 | 22.5 | 0.00 | 0.00 | 0.00 | 91 | 1010.5 |
| 20260506090825 | 14 | 43 | 8.0 | 24.1 | 0.00 | 0.00 | 0.00 | 91 | 1010.5 |
| 20260506090322 | 14 | 195 | 6.4 | 14.5 | 0.00 | 0.00 | 0.00 | 91 | 1010.7 |
| 20260506085818 | 14 | 107 | 8.0 | 17.7 | 0.00 | 0.00 | 0.00 | 90 | 1010.6 |
| 20260506085315 | 14 | 139 | 9.7 | 24.1 | 0.00 | 0.00 | 0.00 | 90 | 1010.9 |
| 20260506084812 | 14 | 154 | 6.4 | 14.5 | 0.00 | 0.00 | 0.00 | 90 | 1010.7 |
| 20260506084308 | 14 | 156 | 11.3 | 19.3 | 0.00 | 0.00 | 0.00 | 90 | 1010.7 |
| 20260506083805 | 15 | 82 | 0.0 | 17.7 | 0.00 | 0.00 | 0.00 | 90 | 1010.8 |
| 20260506083302 | 15 | 122 | 12.9 | 14.5 | 0.00 | 0.00 | 0.00 | 90 | 1010.8 |
| 20260506082800 | 15 | 166 | 12.9 | 20.9 | 0.00 | 0.00 | 0.00 | 90 | 1010.9 |
| 20260506082255 | 15 | 133 | 11.3 | 20.9 | 0.00 | 0.00 | 0.00 | 89 | 1010.7 |
| 20260506081753 | 15 | 167 | 9.7 | 19.3 | 0.00 | 0.00 | 0.00 | 89 | 1010.6 |
| 20260506081250 | 15 | 75 | 9.7 | 30.6 | 0.00 | 0.00 | 0.00 | 89 | 1010.7 |
| 20260506080748 | 15 | 108 | 6.4 | 30.6 | 0.00 | 0.00 | 0.00 | 88 | 1010.7 |
| 20260506080244 | 15 | 182 | 19.3 | 29.0 | 0.00 | 0.00 | 0.00 | 88 | 1010.8 |
| 20260506073228 | 15 | 215 | 11.3 | 17.7 | 0.00 | 0.00 | 0.00 | 88 | 1010.7 |
| 20260506072725 | 15 | 133 | 19.3 | 24.1 | 0.00 | 0.00 | 0.00 | 88 | 1010.6 |
| 20260506072223 | 15 | 178 | 9.7 | 30.6 | 0.00 | 0.00 | 0.00 | 88 | 1010.5 |